| time (UTC) | temp F | wind direction | speed MPH | gust MPH | rain 1hr in | rain 24hr in | rain mn in | humidity % | barometer mb |
| 20260503192514 | 66 | 245 | 14.0 | 29.0 | 0.00 | 0.00 | 0.00 | 42 | 1006.0 |
| 20260503192015 | 66 | 208 | 10.0 | 24.0 | 0.00 | 0.00 | 0.00 | 42 | 1005.9 |
| 20260503191534 | 65 | 219 | 9.0 | 22.0 | 0.00 | 0.00 | 0.00 | 45 | 1005.9 |
| 20260503191015 | 65 | 239 | 11.0 | 22.0 | 0.00 | 0.00 | 0.00 | 44 | 1006.0 |
| 20260503190516 | 65 | 188 | 10.0 | 24.0 | 0.00 | 0.00 | 0.00 | 45 | 1006.0 |
| 20260503190030 | 65 | 198 | 10.0 | 24.0 | 0.00 | 0.00 | 0.00 | 45 | 1006.1 |
| 20260503185515 | 64 | 196 | 8.0 | 25.0 | 0.00 | 0.00 | 0.00 | 44 | 1006.2 |
| 20260503185015 | 64 | 211 | 13.0 | 28.0 | 0.00 | 0.00 | 0.00 | 45 | 1006.4 |
| 20260503184528 | 64 | 184 | 10.0 | 28.0 | 0.00 | 0.00 | 0.00 | 47 | 1006.3 |
| 20260503184015 | 63 | 192 | 10.0 | 25.0 | 0.00 | 0.00 | 0.00 | 46 | 1006.5 |
| 20260503183514 | 63 | 225 | 12.0 | 31.0 | 0.00 | 0.00 | 0.00 | 45 | 1006.3 |
| 20260503183030 | 63 | 158 | 10.0 | 32.0 | 0.00 | 0.00 | 0.00 | 49 | 1006.5 |
| 20260503182512 | 62 | 184 | 12.0 | 32.0 | 0.00 | 0.00 | 0.00 | 50 | 1006.6 |
| 20260503182016 | 62 | 158 | 10.0 | 22.0 | 0.00 | 0.00 | 0.00 | 53 | 1006.8 |
| 20260503181530 | 62 | 173 | 8.0 | 22.0 | 0.00 | 0.00 | 0.00 | 54 | 1006.7 |
| 20260503181015 | 61 | 191 | 9.0 | 25.0 | 0.00 | 0.00 | 0.00 | 54 | 1006.8 |
| 20260503180516 | 61 | 175 | 11.0 | 25.0 | 0.00 | 0.00 | 0.00 | 53 | 1006.9 |
| 20260503180032 | 61 | 151 | 8.0 | 25.0 | 0.00 | 0.00 | 0.00 | 56 | 1006.9 |
| 20260503175516 | 60 | 270 | 7.0 | 27.0 | 0.00 | 0.00 | 0.00 | 55 | 1007.1 |
| 20260503175015 | 60 | 218 | 9.0 | 27.0 | 0.00 | 0.00 | 0.00 | 54 | 1007.1 |
| 20260503174532 | 60 | 209 | 10.0 | 26.0 | 0.00 | 0.00 | 0.00 | 55 | 1007.5 |
| 20260503174014 | 59 | 128 | 8.0 | 22.0 | 0.00 | 0.00 | 0.00 | 56 | 1007.4 |
| 20260503173514 | 59 | 202 | 11.0 | 22.0 | 0.00 | 0.00 | 0.00 | 56 | 1007.6 |
| 20260503173030 | 59 | 173 | 8.0 | 22.0 | 0.00 | 0.00 | 0.00 | 55 | 1007.7 |
| 20260503172516 | 59 | 202 | 9.0 | 22.0 | 0.00 | 0.00 | 0.00 | 57 | 1007.7 |
| 20260503172015 | 58 | 181 | 8.0 | 22.0 | 0.00 | 0.00 | 0.00 | 59 | 1007.8 |
| 20260503171531 | 57 | 227 | 10.0 | 20.0 | 0.00 | 0.00 | 0.00 | 58 | 1008.0 |
| 20260503171017 | 57 | 230 | 6.0 | 16.0 | 0.00 | 0.00 | 0.00 | 60 | 1008.0 |
| 20260503170515 | 57 | 182 | 7.0 | 19.0 | 0.00 | 0.00 | 0.00 | 61 | 1008.1 |
| 20260503151014 | 58 | 238 | 8.0 | 28.0 | 0.00 | 0.00 | 0.00 | 54 | 1009.4 |
| 20260503150514 | 58 | 221 | 9.0 | 28.0 | 0.00 | 0.00 | 0.00 | 53 | 1009.4 |
| 20260503131018 | 52 | 198 | 6.0 | 16.0 | 0.00 | 0.00 | 0.00 | 56 | 1010.5 |
| 20260503130514 | 51 | 268 | 7.0 | 17.0 | 0.00 | 0.00 | 0.00 | 57 | 1010.5 |
| 20260503110515 | 48 | 211 | 7.0 | 14.0 | 0.00 | 0.00 | 0.00 | 54 | 1010.3 |
| 20260503081528 | 49 | 223 | 5.0 | 16.0 | 0.00 | 0.00 | 0.00 | 51 | 1011.5 |
| 20260503081017 | 48 | 198 | 5.0 | 13.0 | 0.00 | 0.00 | 0.00 | 52 | 1011.5 |
| 20260503080514 | 48 | 216 | 5.0 | 12.0 | 0.00 | 0.00 | 0.00 | 52 | 1011.5 |
| 20260503072512 | 47 | 180 | 2.0 | 8.0 | 0.00 | 0.00 | 0.00 | 55 | 1011.7 |
| 20260503072012 | 46 | 163 | 3.0 | 8.0 | 0.00 | 0.00 | 0.00 | 55 | 1011.8 |
| 20260503071536 | 46 | 209 | 3.0 | 8.0 | 0.00 | 0.00 | 0.00 | 56 | 1011.8 |
| 20260503071011 | 46 | 197 | 3.0 | 8.0 | 0.00 | 0.00 | 0.00 | 56 | 1011.9 |
| 20260503070512 | 46 | 145 | 4.0 | 8.0 | 0.00 | 0.00 | 0.00 | 57 | 1011.9 |
| 20260503055014 | 42 | 0 | 0.0 | 4.0 | 0.00 | 0.00 | 0.00 | 66 | 1012.4 |
| 20260503054535 | 42 | 192 | 0.0 | 4.0 | 0.00 | 0.00 | 0.00 | 66 | 1012.5 |
| 20260503054015 | 42 | 0 | 0.0 | 4.0 | 0.00 | 0.00 | 0.00 | 67 | 1012.4 |
| 20260503053513 | 42 | 240 | 0.0 | 4.0 | 0.00 | 0.00 | 0.00 | 68 | 1012.5 |
| 20260503053033 | 42 | 182 | 1.0 | 4.0 | 0.00 | 0.00 | 0.00 | 68 | 1012.5 |
| 20260503052514 | 41 | 0 | 1.0 | 4.0 | 0.00 | 0.00 | 0.00 | 69 | 1012.5 |
| 20260503052017 | 41 | 183 | 0.0 | 4.0 | 0.00 | 0.00 | 0.00 | 70 | 1012.7 |
| 20260503051535 | 41 | 189 | 0.0 | 4.0 | 0.00 | 0.00 | 0.00 | 72 | 1012.7 |
| 20260503051012 | 40 | 173 | 0.0 | 4.0 | 0.00 | 0.00 | 0.00 | 72 | 1012.7 |
| 20260503050514 | 40 | 196 | 1.0 | 3.0 | 0.00 | 0.00 | 0.00 | 72 | 1012.8 |
| 20260503050037 | 40 | 0 | 1.0 | 3.0 | 0.00 | 0.00 | 0.00 | 73 | 1012.8 |
| 20260503045514 | 40 | 0 | 0.0 | 3.0 | 0.00 | 0.00 | 0.00 | 73 | 1012.7 |
| 20260503045018 | 40 | 0 | 0.0 | 3.0 | 0.00 | 0.00 | 0.00 | 74 | 1012.8 |
| 20260503044532 | 40 | 0 | 0.0 | 6.0 | 0.00 | 0.00 | 0.00 | 74 | 1012.9 |
| 20260503044013 | 40 | 0 | 0.0 | 6.0 | 0.00 | 0.00 | 0.00 | 74 | 1012.8 |
| 20260503043513 | 40 | 0 | 0.0 | 2.0 | 0.00 | 0.00 | 0.00 | 74 | 1012.9 |
| 20260503043031 | 40 | 159 | 0.0 | 2.0 | 0.00 | 0.00 | 0.00 | 74 | 1012.9 |
| 20260503042514 | 40 | 173 | 0.0 | 4.0 | 0.00 | 0.00 | 0.00 | 74 | 1013.0 |
| 20260503042014 | 40 | 0 | 1.0 | 5.0 | 0.00 | 0.00 | 0.00 | 74 | 1013.0 |
| 20260503041537 | 40 | 0 | 1.0 | 5.0 | 0.00 | 0.00 | 0.00 | 74 | 1013.0 |
| 20260503041013 | 40 | 0 | 0.0 | 3.0 | 0.00 | 0.00 | 0.00 | 74 | 1013.0 |
| 20260503040513 | 41 | 0 | 0.0 | 3.0 | 0.00 | 0.00 | 0.00 | 74 | 1013.1 |
| 20260503040029 | 41 | 0 | 0.0 | 5.0 | 0.00 | 0.00 | 0.00 | 74 | 1013.1 |
| 20260503035513 | 41 | 180 | 1.0 | 5.0 | 0.00 | 0.00 | 0.00 | 74 | 1013.1 |
| 20260503035013 | 41 | 0 | 1.0 | 4.0 | 0.00 | 0.00 | 0.00 | 74 | 1013.2 |
| 20260503034531 | 41 | 182 | 0.0 | 4.0 | 0.00 | 0.00 | 0.00 | 74 | 1013.2 |
| 20260503034015 | 41 | 194 | 1.0 | 5.0 | 0.00 | 0.00 | 0.00 | 73 | 1013.2 |
| 20260503033511 | 41 | 0 | 1.0 | 5.0 | 0.00 | 0.00 | 0.00 | 73 | 1013.3 |
| 20260503033033 | 42 | 175 | 0.0 | 4.0 | 0.00 | 0.00 | 0.00 | 73 | 1013.3 |
| 20260503032518 | 42 | 0 | 1.0 | 4.0 | 0.00 | 0.00 | 0.00 | 73 | 1013.3 |
| 20260503032015 | 42 | 175 | 0.0 | 4.0 | 0.00 | 0.00 | 0.00 | 73 | 1013.3 |
| 20260503031531 | 42 | 190 | 1.0 | 3.0 | 0.00 | 0.00 | 0.00 | 73 | 1013.5 |
| 20260503031014 | 42 | 136 | 1.0 | 5.0 | 0.00 | 0.00 | 0.00 | 72 | 1013.5 |
| 20260503030513 | 42 | 150 | 1.0 | 5.0 | 0.00 | 0.00 | 0.00 | 72 | 1013.6 |
| 20260503030036 | 42 | 168 | 1.0 | 4.0 | 0.00 | 0.00 | 0.00 | 71 | 1013.7 |
| 20260503025510 | 42 | 0 | 1.0 | 6.0 | 0.00 | 0.00 | 0.00 | 71 | 1013.7 |
| 20260503025011 | 43 | 151 | 1.0 | 6.0 | 0.00 | 0.00 | 0.00 | 71 | 1013.8 |
| 20260503024530 | 43 | 0 | 1.0 | 6.0 | 0.00 | 0.00 | 0.00 | 71 | 1013.7 |
| 20260503024014 | 43 | 202 | 1.0 | 6.0 | 0.00 | 0.00 | 0.00 | 70 | 1013.8 |
| 20260503023513 | 43 | 190 | 2.0 | 5.0 | 0.00 | 0.00 | 0.00 | 70 | 1013.8 |
| 20260503023031 | 43 | 134 | 2.0 | 7.0 | 0.00 | 0.00 | 0.00 | 69 | 1013.8 |
| 20260503022513 | 43 | 173 | 1.0 | 7.0 | 0.00 | 0.00 | 0.00 | 69 | 1013.7 |
| 20260503022010 | 43 | 149 | 2.0 | 7.0 | 0.00 | 0.00 | 0.00 | 69 | 1013.8 |
| 20260503021529 | 43 | 194 | 1.0 | 7.0 | 0.00 | 0.00 | 0.00 | 68 | 1013.7 |
| 20260503021013 | 43 | 157 | 2.0 | 7.0 | 0.00 | 0.00 | 0.00 | 67 | 1013.8 |
| 20260503020511 | 44 | 167 | 1.0 | 9.0 | 0.00 | 0.00 | 0.00 | 67 | 1013.7 |
| 20260503020031 | 44 | 0 | 1.0 | 9.0 | 0.00 | 0.00 | 0.00 | 67 | 1013.7 |
| 20260503015514 | 44 | 119 | 3.0 | 7.0 | 0.00 | 0.00 | 0.00 | 66 | 1013.6 |
| 20260503015014 | 44 | 169 | 1.0 | 5.0 | 0.00 | 0.00 | 0.00 | 66 | 1013.6 |
| 20260503014530 | 44 | 173 | 2.0 | 6.0 | 0.00 | 0.00 | 0.00 | 65 | 1013.5 |
| 20260503014015 | 44 | 148 | 2.0 | 6.0 | 0.00 | 0.00 | 0.00 | 65 | 1013.5 |
| 20260503013515 | 44 | 166 | 2.0 | 6.0 | 0.00 | 0.00 | 0.00 | 64 | 1013.5 |
| 20260503013036 | 45 | 119 | 1.0 | 5.0 | 0.00 | 0.00 | 0.00 | 64 | 1013.5 |
| 20260503012515 | 45 | 133 | 2.0 | 5.0 | 0.00 | 0.00 | 0.00 | 64 | 1013.6 |
| 20260503012015 | 45 | 130 | 2.0 | 5.0 | 0.00 | 0.00 | 0.00 | 63 | 1013.5 |
| 20260503011530 | 45 | 164 | 1.0 | 5.0 | 0.00 | 0.00 | 0.00 | 63 | 1013.5 |
| 20260503011014 | 45 | 130 | 2.0 | 5.0 | 0.00 | 0.00 | 0.00 | 62 | 1013.5 |
| 20260503010515 | 46 | 128 | 1.0 | 6.0 | 0.00 | 0.00 | 0.00 | 62 | 1013.6 |
| 20260503010036 | 46 | 158 | 2.0 | 6.0 | 0.00 | 0.00 | 0.00 | 61 | 1013.5 |
| 20260503005515 | 46 | 166 | 2.0 | 7.0 | 0.00 | 0.00 | 0.00 | 60 | 1013.5 |
| 20260503005016 | 46 | 146 | 1.0 | 7.0 | 0.00 | 0.00 | 0.00 | 60 | 1013.5 |
| 20260503004530 | 47 | 0 | 1.0 | 7.0 | 0.00 | 0.00 | 0.00 | 59 | 1013.5 |
| 20260503004016 | 47 | 153 | 2.0 | 9.0 | 0.00 | 0.00 | 0.00 | 58 | 1013.5 |
| 20260503003515 | 47 | 136 | 1.0 | 9.0 | 0.00 | 0.00 | 0.00 | 57 | 1013.6 |
| 20260503003028 | 48 | 126 | 2.0 | 6.0 | 0.00 | 0.00 | 0.00 | 57 | 1013.6 |
| 20260503002515 | 48 | 143 | 2.0 | 8.0 | 0.00 | 0.00 | 0.00 | 56 | 1013.7 |
| 20260503002015 | 48 | 110 | 3.0 | 8.0 | 0.00 | 0.00 | 0.00 | 56 | 1013.7 |
| 20260503001541 | 48 | 149 | 3.0 | 9.0 | 0.00 | 0.00 | 0.00 | 55 | 1013.7 |
| 20260503001015 | 48 | 159 | 3.0 | 9.0 | 0.00 | 0.00 | 0.00 | 54 | 1013.8 |
| 20260503000515 | 49 | 119 | 3.0 | 8.0 | 0.00 | 0.00 | 0.00 | 54 | 1013.8 |
| 20260503000030 | 49 | 0 | 3.0 | 7.0 | 0.00 | 0.00 | 0.00 | 53 | 1013.7 |
| 20260502235514 | 49 | 143 | 2.0 | 8.0 | 0.00 | 0.00 | 0.00 | 53 | 1013.8 |
| 20260502235015 | 49 | 165 | 3.0 | 8.0 | 0.00 | 0.00 | 0.00 | 52 | 1013.8 |
| 20260502234537 | 50 | 162 | 2.0 | 8.0 | 0.00 | 0.00 | 0.00 | 53 | 1013.9 |
| 20260502234019 | 50 | 130 | 4.0 | 8.0 | 0.00 | 0.00 | 0.00 | 51 | 1013.9 |
| 20260502233518 | 50 | 129 | 3.0 | 8.0 | 0.00 | 0.00 | 0.00 | 52 | 1014.0 |
| 20260502233029 | 50 | 128 | 3.0 | 8.0 | 0.00 | 0.00 | 0.00 | 53 | 1014.1 |
| 20260502232517 | 50 | 157 | 2.0 | 8.0 | 0.00 | 0.00 | 0.00 | 52 | 1014.1 |
| 20260502232012 | 50 | 119 | 2.0 | 8.0 | 0.00 | 0.00 | 0.00 | 51 | 1014.1 |
| 20260502231530 | 51 | 94 | 4.0 | 8.0 | 0.00 | 0.00 | 0.00 | 50 | 1014.2 |
| 20260502231015 | 51 | 101 | 3.0 | 8.0 | 0.00 | 0.00 | 0.00 | 51 | 1014.2 |
| 20260502230515 | 50 | 112 | 3.0 | 8.0 | 0.00 | 0.00 | 0.00 | 51 | 1014.3 |
| 20260502230034 | 50 | 187 | 4.0 | 8.0 | 0.00 | 0.00 | 0.00 | 51 | 1014.2 |
| 20260502225514 | 51 | 181 | 3.0 | 9.0 | 0.00 | 0.00 | 0.00 | 51 | 1014.3 |
| 20260502225020 | 51 | 138 | 3.0 | 9.0 | 0.00 | 0.00 | 0.00 | 50 | 1014.4 |
| 20260502224532 | 51 | 192 | 2.0 | 9.0 | 0.00 | 0.00 | 0.00 | 50 | 1014.5 |
| 20260502224015 | 51 | 141 | 4.0 | 9.0 | 0.00 | 0.00 | 0.00 | 52 | 1014.5 |
| 20260502223515 | 51 | 135 | 3.0 | 9.0 | 0.00 | 0.00 | 0.00 | 50 | 1014.5 |
| 20260502223032 | 51 | 111 | 3.0 | 9.0 | 0.00 | 0.00 | 0.00 | 52 | 1014.5 |
| 20260502222515 | 51 | 134 | 2.0 | 10.0 | 0.00 | 0.00 | 0.00 | 51 | 1014.6 |
| 20260502222014 | 51 | 126 | 6.0 | 10.0 | 0.00 | 0.00 | 0.00 | 49 | 1014.6 |
| 20260502221532 | 51 | 142 | 5.0 | 10.0 | 0.00 | 0.00 | 0.00 | 49 | 1014.6 |
| 20260502221015 | 52 | 126 | 3.0 | 10.0 | 0.00 | 0.00 | 0.00 | 49 | 1014.7 |
| 20260502220515 | 52 | 132 | 4.0 | 11.0 | 0.00 | 0.00 | 0.00 | 48 | 1014.7 |
| 20260502220030 | 53 | 115 | 5.0 | 11.0 | 0.00 | 0.00 | 0.00 | 47 | 1014.8 |
| 20260502215516 | 52 | 138 | 4.0 | 10.0 | 0.00 | 0.00 | 0.00 | 51 | 1014.7 |
| 20260502215016 | 52 | 86 | 5.0 | 10.0 | 0.00 | 0.00 | 0.00 | 48 | 1014.7 |
| 20260502214531 | 52 | 116 | 4.0 | 9.0 | 0.00 | 0.00 | 0.00 | 49 | 1014.7 |
| 20260502214015 | 52 | 136 | 5.0 | 9.0 | 0.00 | 0.00 | 0.00 | 46 | 1014.8 |
| 20260502213515 | 53 | 96 | 3.0 | 10.0 | 0.00 | 0.00 | 0.00 | 47 | 1014.9 |
| 20260502213030 | 53 | 115 | 3.0 | 10.0 | 0.00 | 0.00 | 0.00 | 48 | 1015.0 |
| 20260502212518 | 52 | 126 | 4.0 | 10.0 | 0.00 | 0.00 | 0.00 | 48 | 1015.0 |
| 20260502212014 | 52 | 148 | 1.0 | 8.0 | 0.00 | 0.00 | 0.00 | 52 | 1015.0 |
| 20260502211530 | 52 | 104 | 4.0 | 9.0 | 0.00 | 0.00 | 0.00 | 49 | 1015.0 |
| 20260502211018 | 52 | 97 | 3.0 | 9.0 | 0.00 | 0.00 | 0.00 | 48 | 1015.2 |
| 20260502210514 | 52 | 138 | 2.0 | 8.0 | 0.00 | 0.00 | 0.00 | 49 | 1015.2 |
| 20260502210031 | 52 | 112 | 2.0 | 10.0 | 0.00 | 0.00 | 0.00 | 48 | 1015.3 |
| 20260502205517 | 52 | 126 | 4.0 | 11.0 | 0.00 | 0.00 | 0.00 | 47 | 1015.2 |
| 20260502205016 | 53 | 140 | 4.0 | 11.0 | 0.00 | 0.00 | 0.00 | 47 | 1015.3 |
| 20260502204530 | 53 | 103 | 5.0 | 11.0 | 0.00 | 0.00 | 0.00 | 46 | 1015.5 |
| 20260502204016 | 53 | 96 | 3.0 | 10.0 | 0.00 | 0.00 | 0.00 | 48 | 1015.4 |
| 20260502203515 | 53 | 95 | 4.0 | 9.0 | 0.00 | 0.00 | 0.00 | 51 | 1015.5 |
| 20260502203029 | 53 | 111 | 6.0 | 9.0 | 0.00 | 0.00 | 0.00 | 48 | 1015.5 |
| 20260502202515 | 53 | 133 | 4.0 | 9.0 | 0.00 | 0.00 | 0.00 | 48 | 1015.6 |
| 20260502202015 | 54 | 93 | 4.0 | 8.0 | 0.00 | 0.00 | 0.00 | 47 | 1015.7 |
| 20260502201530 | 53 | 98 | 3.0 | 8.0 | 0.00 | 0.00 | 0.00 | 51 | 1015.6 |
| 20260502201015 | 52 | 105 | 4.0 | 8.0 | 0.00 | 0.00 | 0.00 | 50 | 1015.7 |
| 20260502200518 | 52 | 97 | 2.0 | 8.0 | 0.00 | 0.00 | 0.00 | 47 | 1015.9 |
| 20260502200032 | 52 | 117 | 3.0 | 8.0 | 0.00 | 0.00 | 0.00 | 47 | 1016.0 |
| 20260502195515 | 53 | 107 | 3.0 | 8.0 | 0.00 | 0.00 | 0.00 | 44 | 1015.9 |
| 20260502195014 | 53 | 96 | 3.0 | 8.0 | 0.00 | 0.00 | 0.00 | 44 | 1016.0 |
| 20260502194533 | 54 | 118 | 3.0 | 9.0 | 0.00 | 0.00 | 0.00 | 44 | 1016.0 |
| 20260502194014 | 54 | 153 | 4.0 | 11.0 | 0.00 | 0.00 | 0.00 | 45 | 1016.2 |
| 20260502193514 | 55 | 92 | 3.0 | 11.0 | 0.00 | 0.00 | 0.00 | 50 | 1016.2 |
| 20260502193030 | 54 | 123 | 3.0 | 11.0 | 0.00 | 0.00 | 0.00 | 50 | 1016.2 |